Location: Unspecified
(48.5670°N, 0.0000°E)
Time: 15:03:17
(UTC+00:00)

Vanguard 2 Rocket - Pass Details

Date: 25 August 2019
Orbit: 553 x 3327 km, 32.9° (Epoch: 23 October)

Event Time Altitude Azimuth Distance (km) Brightness Sun altitude
Rises 07:36:52 0° 271° (W) 6,366 10.6 23.7°
Reaches altitude 10° 07:41:23 10° 262° (W) 5,666 10.5 24.4°
Maximum altitude 07:56:14 32° 209° (SSW) 4,636 10.6 26.8°
Drops below altitude 10° 08:12:13 10° 156° (SSE) 6,063 11.8 29.3°
Sets 08:17:22 0° 147° (SSE) 6,846 12.1 30.1°
